Regional Weather Roundup
Issued by NWS

Home | Current Version | Previous Version | Text Only | Print | Product List | Glossary Off
Versions: 1 2 3 4 5 6 7 8 9 10 11 12 13 14 15 16 17 18 19 20 21 22 23 24 25 26 27 28 29 30 31 32 33 34 35 36 37 38 39 40 41 42 43 44 45 46 47 48 49 50

000
ASUS45 KABQ 211110
RWRNM
WEATHER ROUNDUP FOR NEW MEXICO
NATIONAL WEATHER SERVICE ALBUQUERQUE NM
500 AM MDT SUN SEP 21 2014

NOTE: "FAIR" MEANS FEW OR NO CLOUDS BELOW 12,000 FEET AGL WITH NO
       SIGNIFICANT WEATHER OR OBSTRUCTIONS TO VISION.

      THIS PRODUCT IS RELEASED AS TWO VERSIONS.  ONE VERSION NEAR
      THE TOP OF THE HOUR CONTAINING PRELIMINARY DATA FROM ALBUQUERQUE
      AND OTHER STATIONS.  A FINAL VERSION WITH ADDITIONAL DATA IS
      ISSUED ABOUT 10 MINUTES AFTER THE HOUR.

NMZ501-503-504-510>518-211200-
NORTHWEST PLATEAU/NORTHCENTRAL MOUNTAINS

CITY           SKY/WX    TMP DP  RH WIND       PRES   REMARKS
FARMINGTON     CLOUDY    67  51  56 N7        30.24R
LOS ALAMOS     CLEAR     60  54  82 S10       30.37S
SANTA FE       CLEAR     57  52  83 S6        30.31S
TAOS           CLEAR     61  46  59 E5        30.38R
ANGEL FIRE     FAIR      41  37  88 CALM      30.49R

$$
NMZ402-403-502-505>509-211200-
WESTCENTRAL MOUNTAINS/SOUTHWEST MOUNTAINS

CITY           SKY/WX    TMP DP  RH WIND       PRES   REMARKS
GALLUP         MOCLDY    54  42  64 E6        30.28S
GRANTS         CLOUDY    55  50  82 CALM      30.32S
SILVER CITY    MOCLDY    66  63  88 NW3       30.22R

$$
NMZ407-409-411-412-211200-
SOUTHERN DESERTS

CITY           SKY/WX    TMP DP  RH WIND       PRES   REMARKS
LORDSBURG      FAIR      68  64  88 MISG      30.11S
DEMING         MOCLDY    69  64  84 NE8       30.12S
LAS CRUCES     PTCLDY    69  63  80 S6        30.14R
HOLLOMAN AFB   PTCLDY    65  62  88 E7        30.12R
ALAMOGORDO     PTCLDY    64  61  88 NE6       30.14R
T OR C         MOCLDY    65  62  90 NW10      30.18R

$$
NMZ519>523-211200-
CENTRAL VALLEYS/CENTRAL HIGHLANDS

CITY           SKY/WX    TMP DP  RH WIND       PRES   REMARKS
ALBUQUERQUE    PTCLDY    67  56  67 SE15      30.25R
DOUBLE EAGLE   CLEAR     64  56  77 SE12      30.28R
MORIARTY ARPT  FOG       55  53  93 CALM      30.34R VSB<1/4
CLINES CORNERS CLOUDY    59  57  93 E12       30.35S
BELEN          FAIR      66  55  67 SE3       30.23R
SOCORRO        FAIR      69  59  70 NE3       30.21R

$$
NMZ524>526-539-540-211200-
SOUTHCENTRAL MOUNTAINS

CITY           SKY/WX    TMP DP  RH WIND       PRES   REMARKS
RUIDOSO        MOCLDY    59  59 100 CALM      30.34R

$$
NMZ527>531-211200-
NORTHEAST HIGHLANDS/NORTHEAST PLAINS

CITY           SKY/WX    TMP DP  RH WIND       PRES   REMARKS
LAS VEGAS      CLEAR     51  48  89 NE6       30.38R
RATON          PTCLDY    60  55  83 N7        30.36S
CLAYTON        MOCLDY    63  60  90 N9        30.29R

$$
NMZ532>537-211200-
EASTCENTRAL PLAINS

CITY           SKY/WX    TMP DP  RH WIND       PRES   REMARKS
TUCUMCARI      CLOUDY    66  61  84 CALM      30.21R
CANNON AFB     PTCLDY    66 N/A N/A NE5       30.21S
CLOVIS AIRPORT   N/A     66  64  94 CALM      30.23S

$$
NMZ028-029-538-211200-
SOUTHEAST PLAINS

CITY           SKY/WX    TMP DP  RH WIND       PRES   REMARKS
ROSWELL        LGT RAIN  67  64  90 NE12      30.12F
CARLSBAD       CLOUDY    71  32  23 CALM      30.09F


$$



USA.gov is the U.S. government's official web portal to all federal, state and local government web resources and services.